TimeAKDT,TemperatureF,Dew PointF,Humidity,Sea Level PressureIn,VisibilityMPH,Wind Direction,Wind SpeedMPH,Gust SpeedMPH,PrecipitationIn,Events,Conditions,WindDirDegrees,DateUTC
12:18 AM,33.8,33.8,100,30.17,10.0,Calm,Calm,-,0.01,Rain,Light Rain,0,2013-03-31 08:18:00
12:54 AM,34.0,33.1,96,30.18,6.0,ESE,3.5,-,0.02,Rain-Snow,Light Rain,110,2013-03-31 08:54:00
1:54 AM,34.0,33.1,96,30.18,10.0,Calm,Calm,-,0.04,Rain,Light Rain,0,2013-03-31 09:54:00
2:15 AM,33.8,33.8,100,30.17,9.0,Calm,Calm,-,0.01,Rain,Light Rain,0,2013-03-31 10:15:00
2:54 AM,34.0,33.1,96,30.19,10.0,Calm,Calm,-,0.02,Rain,Light Rain,0,2013-03-31 10:54:00
3:16 AM,33.8,33.8,100,30.18,10.0,Calm,Calm,-,0.00,Rain,Light Rain,0,2013-03-31 11:16:00
3:54 AM,34.0,33.1,96,30.19,10.0,Calm,Calm,-,0.00,Rain,Light Rain,0,2013-03-31 11:54:00
4:54 AM,33.1,33.1,100,30.19,10.0,Calm,Calm,-,0.00,,Overcast,0,2013-03-31 12:54:00
5:43 AM,33.8,33.8,100,30.19,10.0,Calm,Calm,-,N/A,,Overcast,0,2013-03-31 13:43:00
5:54 AM,33.1,33.1,100,30.20,10.0,Calm,Calm,-,N/A,,Overcast,0,2013-03-31 13:54:00
6:54 AM,33.1,33.1,100,30.20,10.0,Calm,Calm,-,N/A,,Overcast,0,2013-03-31 14:54:00
7:40 AM,33.8,32.0,93,30.20,10.0,Calm,Calm,-,N/A,,Overcast,0,2013-03-31 15:40:00
7:54 AM,33.1,33.1,100,30.21,10.0,Calm,Calm,-,N/A,,Overcast,0,2013-03-31 15:54:00
8:21 AM,33.8,32.0,93,30.21,10.0,NW,3.5,-,N/A,,Overcast,310,2013-03-31 16:21:00
8:28 AM,33.8,32.0,93,30.21,10.0,NW,3.5,-,N/A,,Overcast,310,2013-03-31 16:28:00
8:54 AM,33.1,33.1,100,30.21,10.0,Calm,Calm,-,N/A,,Overcast,0,2013-03-31 16:54:00
9:14 AM,33.8,33.8,100,30.21,10.0,Calm,Calm,-,N/A,,Overcast,0,2013-03-31 17:14:00
9:54 AM,33.1,33.1,100,30.22,10.0,Calm,Calm,-,N/A,,Overcast,0,2013-03-31 17:54:00
10:47 AM,33.8,33.8,100,30.21,10.0,NNW,3.5,-,N/A,,Overcast,330,2013-03-31 18:47:00
10:54 AM,34.0,33.1,96,30.22,10.0,Calm,Calm,-,N/A,,Overcast,0,2013-03-31 18:54:00
11:54 AM,35.1,34.0,96,30.23,10.0,Calm,Calm,-,N/A,,Overcast,0,2013-03-31 19:54:00
12:44 PM,35.6,33.8,93,30.22,10.0,Calm,Calm,-,0.01,Rain,Light Rain,0,2013-03-31 20:44:00
12:54 PM,36.0,33.1,89,30.23,5.0,Calm,Calm,-,0.01,Rain-Snow,Light Rain,0,2013-03-31 20:54:00
1:54 PM,37.9,34.0,86,30.23,10.0,Calm,Calm,-,0.00,,Mostly Cloudy,0,2013-03-31 21:54:00
2:54 PM,39.9,35.1,83,30.22,10.0,NW,3.5,-,N/A,,Mostly Cloudy,310,2013-03-31 22:54:00
3:54 PM,39.0,34.0,82,30.21,10.0,North,5.8,-,N/A,,Mostly Cloudy,360,2013-03-31 23:54:00
4:54 PM,39.0,34.0,82,30.19,10.0,East,9.2,-,N/A,,Mostly Cloudy,90,2013-04-01 00:54:00
5:54 PM,37.9,33.1,83,30.18,10.0,Calm,Calm,-,0.01,,Scattered Clouds,0,2013-04-01 01:54:00
6:54 PM,39.9,34.0,79,30.18,10.0,WNW,6.9,-,N/A,,Scattered Clouds,290,2013-04-01 02:54:00
7:54 PM,37.0,33.1,86,30.17,10.0,NW,6.9,-,N/A,,Mostly Cloudy,320,2013-04-01 03:54:00
8:54 PM,34.0,32.0,92,30.17,10.0,West,4.6,-,N/A,,Scattered Clouds,280,2013-04-01 04:54:00
9:54 PM,30.9,30.9,100,30.17,10.0,WNW,3.5,-,N/A,,Mostly Cloudy,290,2013-04-01 05:54:00
10:54 PM,30.0,28.9,96,30.17,10.0,Calm,Calm,-,N/A,,Scattered Clouds,0,2013-04-01 06:54:00
11:17 PM,28.4,28.4,100,30.17,2.5,SW,3.5,-,N/A,,Mostly Cloudy,220,2013-04-01 07:17:00
11:25 PM,28.4,28.4,100,30.17,1.0,WSW,3.5,-,N/A,,Overcast,240,2013-04-01 07:25:00
11:41 PM,28.4,28.4,100,30.16,0.8,Calm,Calm,-,N/A,,Overcast,0,2013-04-01 07:41:00
11:54 PM,28.9,28.9,100,30.17,0.5,SW,3.5,-,N/A,Fog,Light Freezing Fog,220,2013-04-01 07:54:00